Weather in Shurinka

Russia / Kemerovo Oblast     54°49′49″N   85°17′25″E
temp.,
°C
wind,
m/s
gust,
m/s
humid.,
%
clouds,
%
prec.,
mm/h
press.,
hPa
HPBL,
m
18 may, wed
wed1801:00+20ssw61445100 0.0 1007358
04:00+18sw51346100 0.1 1007306
07:00+17w3756100 0.1 1009209
10:00+22w2441100 0.0 1010627
13:00+26wnw573173 0.0 10102040
16:00+25wnw563395 0.0 10101723
19:00+23nw344097 0.1 1010449
22:00+18e1157100 0.2 101111
19 may, thu
thu1901:00+16ssw1171100 0.6 101113
04:00+16ese2269100 0.1 100926
07:00+16se2476100 0.8 1008112
10:00+23se574982 0.4 1006397
13:00+29s61125100 0.4 10032909
16:00+29ssw71229100 0.0 10023294
19:00+23w811515 0.0 10051443
22:00+18sw410595 0.0 1008248
20 may, fri
fri2001:00+16wsw51257100 0.3 10101369
04:00+11sw49683 0.0 1013216
07:00+13sw5125667 0.0 1014501
10:00+18sw711363 0.0 10142080
13:00+21wsw812285 0.0 10132955
16:00+22wsw8112786 0.0 10123355
19:00+20w5113582 0.0 10132587
22:00+14sw2251100 0.0 101325
21 may, sat
sat2101:00+13sw3956100 0.0 1014178
04:00+15sw51352100 0.0 1013657
07:00+14ssw3960100 0.0 1014359
10:00+18sw584694 0.0 1014703
13:00+24sw683467 0.0 10111812
16:00+26sw46315 0.0 10102272
19:00+25ssw33354 0.0 10091279
22:00+19sse22515 0.0 100911
22 may, sun
sun2201:00+16se35586 0.0 100762
04:00+14se35637 0.0 100669
07:00+16se2861100 0.0 1004186
10:00+24se4638100 0.0 1003548
13:00+29sse2426100 0.0 10021626
16:00+28sw4430100 0.0 10021918
19:00+25ssw3741100 0.0 1003297
22:00+20sw22520 0.0 100414